Satellite-Ground Cal/Val Site Overpasses Predictions

Prediction of Satellite NPP Overpassing Cal/Val Site: Antarctic Dome C

Ground Cal/Val Site Location: Latitude: -75.10, Longitude: 123.35; Satellite-Ground Site NADIR distance within 100 km.

Table of predicted overpasses for the next 14.0 days since TLE Epoch: 8/24/2018
Interval Starting Time Ending Time Minimum Distance Time Minimum Distance (km)
1 08/25/2018 07:31:40 08/25/2018 07:32:09 08/25/2018 07:31:55 3.58
2 08/28/2018 14:55:09 08/28/2018 14:55:37 08/28/2018 14:55:23 21.27
3 08/29/2018 14:36:28 08/29/2018 14:36:42 08/29/2018 14:36:35 85.57
4 08/30/2018 07:38:01 08/30/2018 07:38:28 08/30/2018 07:38:14 33.71
5 08/31/2018 07:19:15 08/31/2018 07:19:34 08/31/2018 07:19:25 76.45
6 09/02/2018 15:01:31 09/02/2018 15:01:55 09/02/2018 15:01:43 58.49
7 09/03/2018 14:42:42 09/03/2018 14:43:07 09/03/2018 14:42:54 50.62
8 09/04/2018 07:44:22 09/04/2018 07:44:43 09/04/2018 07:44:33 69.01


NCC Satellite Cal/Val Overpasses Prediction Service
